Wind_Speed
32 33 34 35 36 36 37 38 38 38 39 39 40 40 41 41 42 42 42 42 42 42 42 42 41 40 39 38 37 35 33 32 30 30 30 30 29 28 27 25 25 24 25 25 26 27 28 29 31 32 34 35 35 35 35 35 34 34 35 35 35 35 35 34 34 33 32 31 30
32 33 34 35 36 37 37 38 38 38 38 39 39 40 40 40 40 41 41 41 40 40 40 39 38 37 36 34 33 31 29 27 27 28 29 30 30 29 28 26 26 26 27 27 27 27 27 27 28 29 31 33 34 35 35 35 35 35 35 36 37 37 37 37 36 35 33 32 30
33 34 35 35 36 36 37 37 37 37 37 38 38 38 38 38 38 38 38 37 36 36 35 35 34 33 31 30 28 27 25 25 26 27 29 31 31 30 29 27 27 28 29 30 30 30 30 29 28 28 29 30 31 33 35 35 35 35 36 37 39 39 39 39 38 37 35 33 31
33 34 35 35 36 36 36 36 36 37 37 37 37 37 36 36 35 35 34 34 33 32 31 31 29 29 28 27 26 25 25 26 28 30 32 32 31 30 29 29 29 30 30 31 31 31 31 30 29 28 27 28 28 30 32 33 34 35 36 37 38 39 40 41 40 40 39 37 34
34 34 35 35 35 36 36 36 36 36 36 36 36 36 35 34 33 32 32 31 30 29 28 28 27 27 27 27 27 28 29 31 32 33 33 32 30 28 29 29 30 31 31 30 30 29 28 27 27 27 26 26 27 28 29 30 32 34 35 37 37 38 40 41 42 42 42 41 38
34 34 35 35 36 36 36 36 36 36 36 36 35 34 33 32 31 30 29 28 28 27 26 25 25 26 26 27 28 29 30 31 32 32 31 29 27 28 29 31 32 32 31 29 28 27 26 25 25 26 26 26 27 27 28 28 29 31 33 35 36 38 39 40 42 43 43 43 42
34 35 35 36 36 37 37 36 36 36 35 35 33 32 31 30 29 28 27 26 25 24 24 23 23 24 24 25 26 27 27 28 28 27 26 26 27 29 30 32 32 32 30 29 28 27 26 26 27 27 27 28 28 29 29 29 30 31 32 33 34 35 37 38 40 41 42 43 43
35 36 36 37 37 37 36 36 35 34 33 32 31 29 28 27 26 25 24 24 22 22 22 22 22 23 23 24 24 25 25 26 26 26 26 28 29 30 31 32 31 31 30 29 28 28 29 30 30 30 29 28 29 29 29 30 30 31 32 33 33 33 34 35 36 38 39 41 43
35 36 37 37 36 35 35 34 33 32 31 30 28 26 24 23 22 22 21 21 21 21 21 22 23 24 24 25 25 25 25 26 27 28 29 30 31 32 32 32 31 30 29 29 29 30 31 32 33 33 33 32 31 30 29 29 30 31 33 34 34 34 33 33 34 36 38 40 41
36 36 36 36 35 34 33 33 31 30 28 26 25 22 20 19 19 19 19 20 21 21 22 22 23 24 25 25 25 25 26 27 28 29 30 31 32 33 33 32 31 31 30 30 30 31 31 32 32 32 32 32 33 32 32 31 31 32 33 35 37 36 35 34 33 35 36 38 40
36 35 35 34 34 33 32 30 29 27 24 23 21 19 18 17 18 18 19 20 21 22 22 23 23 24 24 25 26 26 27 28 30 31 32 33 33 33 33 32 32 31 30 30 29 29 29 30 30 31 31 31 32 33 34 34 34 35 36 37 38 38 37 35 34 34 34 36 37
35 34 33 32 32 31 29 27 25 23 21 19 18 17 17 17 18 19 20 21 22 23 24 24 24 25 25 26 27 28 29 30 31 33 34 34 34 34 33 32 31 30 30 29 28 28 28 28 29 29 29 29 30 31 33 34 36 37 38 39 38 38 37 36 35 35 35 35 36
33 32 31 30 29 28 26 24 21 19 18 17 17 17 18 18 19 20 21 22 23 25 27 28 28 28 29 30 30 31 31 32 33 34 35 35 35 34 33 32 31 30 29 28 27 27 27 27 27 27 27 28 28 29 30 31 33 36 38 38 38 37 36 37 37 37 36 35 35
32 30 29 28 27 25 23 20 19 18 17 18 19 19 20 20 20 20 21 24 26 28 30 31 32 32 33 33 34 34 34 35 35 36 36 35 34 33 32 31 30 30 29 28 26 26 25 25 25 25 25 26 26 27 27 28 30 31 33 35 36 37 37 37 37 37 37 36 35
30 29 28 27 25 22 20 19 18 18 18 19 20 21 21 21 21 23 25 28 30 32 32 33 33 33 33 33 33 34 34 35 35 35 34 34 32 31 30 30 29 28 27 26 25 24 23 23 23 23 24 24 25 25 25 26 27 28 30 32 34 36 37 38 38 37 37 37 36
28 27 26 25 23 21 20 19 18 18 19 20 21 22 23 24 25 27 29 31 32 33 33 33 33 33 32 32 32 32 32 33 33 32 32 31 30 29 28 27 26 26 25 23 23 22 22 22 22 22 23 24 24 25 25 25 26 27 28 29 31 34 36 38 38 38 38 38 38
27 25 24 23 22 21 20 19 18 19 19 21 22 24 26 28 29 30 31 32 33 33 33 32 32 31 31 30 30 30 30 30 30 29 29 28 27 26 25 25 24 23 22 22 21 21 21 21 22 22 23 24 25 25 25 26 26 27 27 28 29 31 33 35 37 38 39 40 40
25 24 23 22 21 21 21 20 19 19 20 22 25 27 28 29 30 31 31 31 31 31 31 30 30 29 29 29 29 29 28 28 27 27 26 25 25 24 23 23 22 21 21 21 21 21 22 22 22 22 23 24 25 26 26 27 28 28 28 29 29 30 31 32 34 36 38 40 40
24 23 22 22 22 22 21 21 20 21 22 25 27 28 29 29 30 30 30 29 29 28 28 27 27 27 27 27 27 27 26 25 25 24 24 23 22 22 22 21 21 20 20 20 21 21 21 21 21 22 23 24 25 26 27 27 28 29 29 29 30 30 31 31 32 34 35 36 37
22 22 22 23 23 22 22 21 22 23 25 26 28 28 28 28 28 27 27 26 26 25 25 25 25 25 25 25 25 24 24 23 22 22 21 20 20 20 20 19 19 19 20 20 20 21 21 21 22 22 23 24 25 26 26 27 27 28 28 29 30 30 31 31 32 32 33 34 34
22 22 23 23 23 23 23 23 24 25 26 26 27 27 26 26 25 24 24 23 23 23 22 22 22 23 23 23 22 22 21 20 19 19 19 18 18 18 18 18 19 19 19 19 20 20 21 21 22 23 23 24 25 25 25 25 25 26 27 27 28 29 29 29 30 31 32 32 33
22 23 23 23 24 24 24 24 24 25 25 25 25 24 23 23 22 21 21 21 21 21 21 21 21 21 21 21 21 20 19 18 17 17 17 17 18 18 18 18 18 19 19 19 20 20 21 22 22 23 23 24 25 25 26 26 26 27 27 28 28 28 28 28 29 30 30 31 32
22 23 23 23 23 23 23 23 23 23 23 22 22 21 20 20 20 20 19 19 19 19 19 19 19 19 19 19 19 18 18 17 17 17 17 17 18 18 18 18 19 19 20 20 20 20 21 22 22 23 23 25 26 26 27 28 30 30 30 30 30 31 31 31 31 31 32 33 34
22 22 22 22 22 22 22 22 22 21 21 20 20 19 19 19 19 19 18 18 18 18 18 18 18 18 18 17 17 17 17 17 17 18 18 18 18 19 19 19 20 20 20 20 20 20 21 21 22 22 23 25 27 28 27 26 26 26 27 28 29 30 31 32 33 33 34 35 36
22 21 21 21 21 21 20 20 20 20 19 19 18 18 18 18 18 18 18 18 18 17 17 17 17 17 17 17 17 17 17 18 18 18 18 18 19 20 20 21 21 20 20 20 20 21 22 23 24 25 26 28 30 31 32 32 32 32 33 33 31 30 29 30 31 32 33 34 35
21 20 20 20 20 20 19 19 19 19 18 18 18 18 18 18 18 18 18 18 18 17 17 17 17 17 17 17 17 17 18 18 18 18 18 19 20 21 22 22 21 20 20 21 22 24 26 27 28 29 31 32 33 35 36 36 37 37 38 39 38 37 35 34 32 31 30 31 32
20 19 19 19 19 19 18 18 18 18 18 18 18 18 18 18 18 18 18 18 18 17 17 16 16 16 16 16 17 17 18 18 18 18 18 20 21 22 22 21 21 21 22 24 25 27 28 29 30 30 31 32 32 33 34 35 35 36 37 38 39 40 40 39 38 35 32 31 30
19 19 19 19 18 18 18 18 18 18 18 18 18 18 18 18 18 18 18 18 18 17 16 16 15 15 15 16 16 16 17 17 17 18 18 19 20 20 21 21 22 23 24 25 27 27 28 28 29 29 29 30 30 31 32 33 34 34 34 35 36 37 38 39 40 39 37 35 32
19 19 18 18 18 18 17 17 18 18 18 18 18 18 18 18 18 18 18 18 17 17 16 15 15 15 15 15 15 15 15 16 16 17 17 18 19 20 21 22 23 24 25 26 26 27 27 27 28 28 29 30 31 32 32 33 34 34 35 35 35 35 36 37 38 39 39 38 36
19 18 18 18 18 17 17 17 18 18 18 18 18 18 19 19 19 19 18 18 17 16 16 15 15 14 14 14 14 14 15 15 15 16 17 18 19 20 22 23 23 24 25 25 25 26 27 27 28 29 30 31 31 32 33 34 34 35 35 35 35 35 35 35 36 37 38 38 38
18 18 17 17 17 17 17 17 18 18 18 18 18 19 19 19 19 19 18 18 17 17 16 15 14 14 14 14 14 14 15 15 16 17 18 19 20 22 23 23 24 24 24 25 26 26 27 28 29 30 31 31 32 32 33 34 34 35 36 36 37 36 36 36 35 35 36 37 37
18 17 17 17 17 17 17 17 18 18 18 18 18 19 19 19 19 19 18 18 17 17 16 15 14 14 14 14 14 15 15 16 17 18 19 21 22 23 23 24 24 24 25 26 26 27 28 29 29 30 31 31 31 31 32 33 34 35 37 37 38 38 37 37 36 36 35 35 36
18 17 17 17 17 17 17 17 17 18 18 18 18 19 19 19 19 19 18 17 17 16 16 15 15 14 14 15 15 16 17 18 19 20 21 22 23 23 24 24 24 25 25 26 27 27 28 29 29 29 29 29 29 30 30 32 33 35 36 38 38 39 38 38 37 36 35 34 35
17 17 17 17 17 17 17 17 17 17 18 18 19 19 19 19 19 19 18 17 17 16 16 15 15 15 15 16 16 17 19 20 21 22 22 23 23 23 23 23 24 25 25 26 26 27 28 28 28 28 27 27 27 28 29 31 32 34 36 38 39 39 39 38 37 36 34 33 33
17 17 17 17 17 17 17 17 17 17 18 18 19 19 19 19 19 18 18 17 17 16 16 15 15 16 16 17 18 19 20 21 22 22 22 22 22 22 22 23 23 24 25 25 26 26 26 26 26 25 25 25 26 27 28 30 32 33 35 36 37 38 38 38 37 35 33 32 32
17 17 17 17 17 17 17 16 17 17 18 19 19 19 19 19 18 18 17 17 17 16 15 15 16 16 17 18 19 19 20 21 21 21 21 21 20 21 21 22 23 24 24 24 25 25 24 24 23 23 23 23 25 26 27 28 29 30 31 31 32 33 33 34 34 33 32 30 30
16 17 17 17 17 17 16 16 16 17 18 19 19 19 18 18 17 17 16 16 16 16 15 15 16 16 17 18 18 19 19 20 19 19 19 19 19 19 20 22 22 23 23 23 23 22 22 21 21 20 21 22 23 24 25 25 25 25 24 24 25 25 26 27 28 29 28 28 27
16 16 16 17 16 16 16 16 16 17 18 18 18 18 17 17 16 16 15 15 15 15 15 15 15 16 16 17 17 18 18 17 17 17 16 17 17 18 19 20 21 22 22 21 20 19 19 19 18 18 19 20 21 22 22 21 20 19 19 18 18 17 18 20 22 23 24 24 24
16 16 16 16 16 15 15 15 16 17 17 17 17 16 16 15 15 15 15 14 14 14 14 14 14 15 16 16 16 16 15 15 14 14 14 15 16 17 18 18 19 20 19 18 17 17 16 16 16 16 17 18 19 19 20 19 17 16 15 14 13 13 12 13 16 18 19 19 21
16 16 15 15 15 15 15 15 15 16 16 16 15 15 14 14 14 14 14 13 13 13 13 13 13 14 14 14 14 13 12 12 12 12 12 13 14 15 16 16 16 17 16 15 14 14 14 14 14 15 15 16 17 18 18 18 17 15 14 13 12 11 10 9 11 13 14 16 18
16 16 15 15 15 15 15 15 15 15 15 14 13 13 13 13 13 12 12 12 12 12 12 12 12 12 12 11 11 10 10 9 10 10 11 11 11 12 13 13 14 14 13 13 12 12 12 13 13 13 13 14 15 16 17 18 18 17 15 13 12 10 9 8 8 9 10 12 15
Wind_Direction
300 299 298 297 296 295 294 293 292 291 290 289 288 288 287 287 286 286 286 285 284 284 284 284 284 284 285 285 285 285 285 285 285 286 286 287 287 287 285 282 279 276 273 270 268 265 264 263 262 262 262 261 261 260 260 259 259 259 258 256 254 252 249 248 246 245 244 244 245
298 297 297 296 295 294 293 292 292 291 290 289 288 288 287 287 286 286 285 285 284 284 284 284 284 284 284 285 285 285 285 286 286 287 288 289 290 289 288 284 282 280 279 278 276 273 271 269 267 265 264 262 261 260 259 259 259 259 259 258 256 254 252 250 248 246 245 245 246
298 297 296 295 294 293 292 292 291 291 290 289 289 288 288 287 286 286 285 285 285 285 284 284 285 285 286 287 287 285 284 283 283 284 286 287 289 290 289 286 284 282 281 281 281 280 279 277 274 271 267 264 261 260 259 258 258 259 259 259 258 257 255 253 251 249 248 247 247
297 297 296 295 294 293 292 292 292 292 292 291 291 290 290 289 288 288 287 287 287 288 288 288 288 287 286 285 283 280 278 278 279 281 283 285 287 289 289 288 285 283 282 282 283 283 282 281 278 274 269 266 263 262 260 259 259 258 259 259 259 259 257 256 254 252 251 249 248
298 297 296 295 294 294 294 294 294 295 295 295 295 294 294 293 292 291 290 290 290 291 291 291 289 286 283 280 277 275 275 277 279 280 282 283 285 287 287 286 285 285 284 284 283 283 282 280 277 274 271 268 267 265 264 263 262 261 259 259 259 258 258 257 256 255 253 252 250
298 298 297 297 297 297 298 298 299 299 299 299 299 298 297 295 293 292 291 291 291 291 291 291 290 287 284 282 280 279 279 280 281 281 282 283 284 284 284 284 286 287 287 286 285 284 282 280 278 276 274 274 273 272 271 271 269 266 263 261 259 258 258 258 258 257 257 255 254
300 300 300 300 301 301 302 302 302 302 302 301 300 298 297 295 293 292 291 291 291 291 292 293 293 291 290 288 286 285 285 285 285 285 284 283 283 282 283 285 287 289 290 290 289 288 286 284 282 280 278 278 278 279 279 279 277 273 269 265 261 259 258 258 259 259 259 259 257
302 303 303 304 304 304 304 304 304 303 302 301 300 298 296 295 294 293 292 293 292 293 295 296 295 294 294 293 292 291 291 291 291 290 289 287 286 286 287 288 289 290 289 288 286 285 284 282 279 276 273 272 273 275 277 277 276 275 272 269 265 262 260 259 259 261 262 262 260
305 306 306 306 306 306 305 305 304 303 302 301 300 299 298 297 296 295 294 294 295 295 296 297 297 297 297 296 295 294 293 292 291 291 291 291 291 291 292 292 291 289 286 283 282 281 280 278 276 274 271 267 265 265 266 268 270 271 271 270 268 266 263 261 260 260 261 262 263
307 307 307 307 306 306 306 305 304 303 302 301 300 300 300 299 298 297 295 295 295 296 297 299 300 300 298 295 292 290 287 286 287 288 289 291 292 293 293 293 291 289 287 285 284 283 282 280 278 276 273 270 266 262 260 260 262 265 268 269 269 268 266 264 261 260 261 262 263
308 308 307 307 307 307 306 306 304 303 302 301 301 301 301 301 300 299 298 298 298 298 298 299 298 296 293 290 286 283 282 282 284 286 288 290 292 292 292 291 290 289 288 287 286 285 283 281 278 276 275 273 270 266 262 259 259 260 262 264 266 267 266 265 264 263 263 264 264
308 308 308 308 308 308 307 306 304 302 300 299 299 299 300 301 303 304 304 303 299 296 293 290 288 286 285 283 282 281 282 283 285 288 290 291 292 291 290 289 288 288 287 287 286 284 281 278 277 275 274 273 272 269 267 264 261 260 260 261 262 264 264 265 265 265 265 266 266
308 308 309 309 309 309 308 305 302 299 297 296 297 300 303 307 309 309 305 299 292 287 284 281 280 279 279 280 281 282 284 285 287 288 290 291 291 290 289 288 287 287 287 287 285 282 279 277 276 275 274 273 272 271 270 268 266 264 263 261 260 259 260 262 264 265 265 265 265
309 310 310 311 311 310 307 303 298 296 296 298 302 306 310 311 309 303 295 288 284 282 282 282 282 281 281 282 282 283 285 286 288 289 290 290 290 290 288 287 286 286 286 286 283 280 278 276 275 275 275 274 273 272 271 271 270 268 266 263 259 257 256 258 261 263 264 263 263
312 312 313 313 313 311 307 301 297 296 300 305 309 311 309 304 296 289 283 281 281 282 284 286 287 287 286 286 286 286 287 288 289 290 290 290 290 289 288 287 286 285 285 284 281 279 277 277 277 277 276 276 275 274 273 272 271 270 268 265 261 257 255 255 257 260 261 261 261
314 315 315 315 314 311 306 300 298 301 306 309 308 303 296 288 284 281 280 281 283 286 289 291 292 292 291 290 290 290 290 290 291 291 291 291 290 290 289 288 287 285 284 282 281 280 279 279 279 279 279 279 278 277 276 275 273 272 270 268 265 261 258 255 255 256 257 258 259
317 317 316 315 313 309 305 301 301 305 306 304 298 291 286 284 283 284 285 287 289 292 294 295 295 295 295 294 293 293 293 293 292 292 291 291 290 290 289 288 287 286 284 283 282 281 281 281 281 281 281 281 280 280 279 278 277 275 273 271 268 265 262 259 256 255 256 257 258
319 318 316 314 311 308 305 304 304 304 301 295 291 288 288 289 291 292 293 294 296 297 297 297 297 297 296 295 295 294 294 293 292 291 290 290 290 289 289 288 287 286 286 285 284 283 283 282 282 282 282 282 281 281 281 280 279 278 276 274 271 269 266 263 260 258 257 257 257
320 318 315 312 309 307 305 304 303 299 295 291 291 293 295 297 298 298 299 299 299 299 299 298 298 297 296 295 294 293 292 291 290 290 289 289 289 289 288 288 288 287 287 286 285 285 284 283 283 282 282 282 281 281 280 280 279 279 278 276 275 272 270 267 264 261 259 258 256
319 316 313 310 308 306 304 303 299 295 293 293 296 299 301 302 302 301 301 300 300 299 298 298 297 296 295 294 293 292 290 288 288 288 288 288 288 288 288 288 288 288 287 286 285 285 285 285 285 284 284 283 281 280 279 278 277 277 276 276 276 274 273 270 268 264 261 259 257
316 313 311 309 307 305 303 301 298 297 298 301 302 304 304 303 303 302 301 301 300 298 297 296 296 295 295 293 292 291 289 287 287 287 287 287 287 286 286 287 288 288 287 287 287 287 287 288 287 286 285 283 281 280 278 276 275 275 275 275 274 273 272 271 269 266 263 260 257
314 312 310 308 306 305 304 304 304 305 306 306 306 305 305 304 304 303 302 300 299 297 296 295 295 294 294 293 291 290 288 287 286 285 285 285 284 284 285 286 288 289 289 289 289 289 289 289 289 288 287 286 284 282 279 276 276 276 276 275 272 270 269 268 267 266 264 261 257
313 311 309 308 308 309 309 310 310 309 308 308 307 307 307 306 305 304 302 301 299 298 298 297 296 295 293 291 290 289 288 287 285 283 282 281 283 284 286 289 290 291 290 289 289 289 290 291 290 289 287 284 282 279 277 276 277 277 276 273 270 269 268 267 267 266 265 263 259
313 311 310 311 312 313 313 313 312 311 310 310 311 311 310 309 308 307 306 305 305 304 303 301 298 296 294 291 289 287 286 285 284 282 282 283 286 290 292 293 291 289 288 287 288 289 290 289 287 283 278 274 270 268 268 269 271 271 270 269 268 268 268 268 268 267 267 266 264
315 314 314 315 316 316 315 314 313 313 313 314 315 315 314 313 312 312 312 311 311 309 307 304 301 298 295 291 288 285 283 282 282 284 287 291 294 294 292 288 286 285 285 286 286 283 280 276 273 271 270 269 268 268 267 265 264 265 266 268 269 268 266 265 265 266 267 267 267
318 318 317 318 318 318 317 316 316 317 318 319 319 318 317 317 317 316 316 315 313 311 308 305 302 299 295 292 289 286 283 282 283 287 292 295 293 288 284 281 281 282 283 281 278 274 272 270 269 270 271 273 273 273 272 270 268 266 266 267 268 267 266 263 261 261 263 265 267
321 320 320 320 320 320 319 319 320 321 321 322 321 320 320 320 320 319 317 315 312 310 307 304 302 299 297 293 290 288 286 285 286 288 289 289 286 284 283 282 282 281 279 276 275 275 275 275 276 276 277 278 278 278 277 276 274 272 269 267 266 266 265 263 260 258 257 258 260
323 322 322 322 322 322 322 323 324 324 324 323 323 322 322 322 321 319 316 314 311 309 307 305 303 300 298 295 293 291 289 289 289 288 287 287 288 289 289 287 285 282 280 279 280 281 281 282 282 281 281 280 280 280 280 279 279 277 275 271 268 266 264 262 260 257 254 253 253
325 324 324 324 324 325 325 326 326 326 325 325 324 324 324 322 320 318 315 313 311 309 308 306 304 301 299 297 295 294 293 293 292 292 293 295 296 295 292 289 286 285 284 285 285 285 284 284 283 282 282 281 281 281 280 280 279 277 275 273 271 268 266 263 261 258 255 251 249
328 327 327 326 327 327 328 328 328 327 326 326 327 326 325 322 319 317 315 314 311 309 308 306 304 302 300 299 298 298 297 296 296 297 299 300 298 294 290 288 288 288 288 287 286 285 285 285 284 284 284 284 283 282 280 279 277 275 273 271 269 268 266 264 262 259 256 251 248
331 330 329 329 329 330 330 329 329 328 328 329 329 327 325 322 320 317 316 314 312 309 307 305 303 301 299 299 298 298 298 298 298 299 299 296 293 291 289 289 289 289 288 287 286 286 287 287 288 288 288 287 285 283 280 277 275 273 270 269 267 266 264 263 262 260 256 252 248
334 333 332 331 331 331 330 330 330 330 331 331 330 328 325 322 320 318 317 315 312 310 308 306 303 301 299 297 296 296 296 298 298 296 294 293 292 292 292 291 290 289 288 287 288 289 290 291 291 291 290 288 285 282 279 276 274 271 270 268 266 265 263 262 261 259 256 253 248
337 335 334 333 332 331 331 331 332 332 332 332 330 328 325 323 321 320 318 316 314 311 309 307 304 301 299 297 296 296 297 297 296 295 295 295 295 295 294 292 290 289 289 289 290 291 292 293 292 291 289 286 283 280 277 274 272 270 269 268 266 265 264 262 260 258 256 253 248
338 337 335 334 333 333 332 333 333 334 333 332 330 328 325 324 322 321 320 318 316 313 310 307 304 300 298 297 296 297 296 296 296 297 298 298 297 295 293 291 289 289 290 291 292 293 294 294 292 290 288 286 283 280 277 275 273 271 270 268 267 266 265 263 261 259 256 253 248
340 338 337 336 335 334 333 333 334 334 333 331 329 327 325 325 324 322 321 319 316 313 310 306 302 299 296 295 294 295 296 298 299 299 299 299 297 294 291 289 289 290 291 293 294 295 295 294 292 290 289 287 285 284 282 281 278 276 274 271 269 267 266 264 262 260 257 253 248
343 341 339 337 336 335 334 334 334 335 334 332 329 327 326 326 325 324 322 320 317 314 310 307 303 300 297 296 296 297 298 300 300 300 299 297 295 291 289 289 291 292 294 295 295 295 295 294 293 292 292 292 291 290 290 289 287 285 282 279 274 270 267 264 262 260 257 253 247
346 344 341 339 337 336 335 335 336 337 336 333 330 328 327 327 327 326 324 321 319 315 312 309 306 303 301 300 300 301 301 301 300 299 297 295 293 291 291 291 293 295 296 297 297 296 295 294 295 296 298 299 299 299 298 298 298 297 295 291 285 278 270 264 261 259 256 252 245
350 347 344 341 339 337 337 337 339 339 337 335 332 331 330 330 330 330 328 326 323 319 315 313 310 307 306 305 304 303 302 300 299 297 296 295 295 294 294 294 296 297 298 298 297 296 296 297 299 302 305 308 308 308 307 308 309 309 308 305 299 290 278 267 261 257 254 250 243
354 351 348 345 343 340 339 340 342 341 339 337 335 335 335 337 336 335 332 328 325 322 318 315 312 311 309 308 307 304 302 300 298 297 297 297 297 297 297 297 298 299 299 299 298 298 300 302 306 309 311 314 315 315 314 314 316 320 322 321 315 305 289 272 262 256 252 246 238
357 355 353 350 347 345 344 345 346 345 342 341 340 341 344 344 343 339 334 330 327 324 321 318 316 315 313 312 311 309 306 303 301 299 299 299 299 299 299 300 300 301 301 301 301 303 306 310 314 317 319 321 321 320 318 317 320 325 331 333 329 319 304 283 266 256 249 242 233
2 1 359 357 354 351 350 350 351 350 349 349 351 353 353 352 350 346 342 339 335 332 329 327 325 323 323 323 323 321 317 313 309 306 304 303 303 304 305 306 306 305 305 305 307 311 315 319 323 327 330 330 328 324 321 320 322 327 332 337 336 329 316 298 276 260 248 238 227
Height
1433 1432 1431 1430 1429 1428 1427 1426 1425 1424 1422 1421 1420 1419 1417 1416 1415 1414 1413 1412 1411 1410 1409 1409 1408 1407 1407 1406 1406 1405 1405 1404 1404 1403 1403 1402 1402 1402 1402 1402 1402 1402 1402 1402 1402 1402 1402 1402 1402 1402 1402 1401 1402 1402 1402 1402 1403 1403 1403 1403 1403 1403 1403 1403 1404 1404 1405 1406 1406
1431 1430 1429 1428 1427 1426 1424 1423 1422 1421 1420 1418 1417 1416 1415 1414 1412 1411 1410 1410 1409 1408 1407 1406 1405 1405 1404 1403 1403 1402 1402 1401 1401 1401 1400 1400 1400 1400 1400 1399 1399 1399 1399 1399 1399 1399 1399 1400 1400 1399 1399 1398 1398 1399 1399 1399 1400 1400 1400 1399 1400 1400 1400 1400 1401 1401 1402 1403 1403
1428 1427 1426 1426 1424 1423 1422 1420 1419 1418 1417 1416 1415 1413 1412 1411 1410 1408 1407 1406 1406 1405 1404 1403 1402 1402 1401 1401 1400 1400 1400 1399 1399 1398 1398 1397 1397 1397 1397 1397 1397 1396 1396 1396 1396 1396 1396 1396 1396 1396 1396 1395 1395 1395 1395 1396 1396 1396 1396 1396 1396 1397 1397 1397 1398 1398 1399 1400 1400
1426 1425 1424 1423 1422 1421 1419 1418 1416 1415 1414 1413 1411 1410 1409 1408 1407 1406 1404 1403 1403 1402 1401 1401 1400 1399 1399 1398 1398 1398 1397 1397 1396 1396 1396 1395 1395 1395 1395 1395 1394 1394 1394 1394 1394 1393 1393 1393 1393 1393 1392 1392 1392 1392 1392 1392 1393 1393 1393 1393 1394 1394 1394 1394 1395 1395 1396 1396 1397
1424 1423 1422 1421 1420 1418 1417 1416 1414 1412 1411 1410 1408 1407 1406 1405 1404 1402 1401 1401 1400 1399 1399 1398 1398 1397 1396 1396 1396 1395 1395 1395 1394 1394 1393 1393 1392 1392 1392 1392 1392 1391 1391 1391 1391 1391 1391 1391 1390 1390 1389 1389 1389 1389 1389 1390 1390 1390 1390 1390 1391 1391 1391 1391 1391 1392 1392 1393 1393
1422 1421 1420 1418 1417 1415 1414 1412 1411 1410 1408 1406 1405 1404 1403 1402 1401 1400 1399 1398 1397 1397 1396 1396 1395 1394 1394 1394 1393 1393 1392 1392 1392 1391 1391 1390 1390 1390 1390 1389 1389 1389 1388 1388 1388 1388 1388 1388 1387 1387 1386 1386 1386 1386 1386 1387 1387 1387 1387 1387 1387 1388 1388 1388 1389 1389 1389 1390 1390
1420 1418 1417 1415 1414 1412 1411 1409 1408 1406 1405 1404 1402 1401 1400 1399 1398 1397 1397 1396 1395 1395 1394 1394 1393 1392 1392 1391 1391 1391 1390 1390 1389 1388 1388 1388 1387 1387 1387 1387 1386 1386 1386 1386 1385 1385 1385 1385 1385 1384 1384 1384 1383 1383 1383 1384 1384 1384 1384 1384 1384 1385 1385 1386 1386 1386 1386 1386 1387
1417 1416 1414 1412 1411 1409 1408 1406 1405 1404 1402 1401 1400 1399 1398 1397 1396 1395 1395 1394 1393 1393 1392 1392 1391 1391 1390 1389 1389 1388 1388 1387 1386 1386 1386 1386 1385 1385 1385 1384 1384 1383 1383 1383 1383 1383 1383 1383 1382 1382 1382 1382 1381 1381 1381 1381 1381 1381 1381 1381 1381 1382 1382 1382 1383 1383 1383 1383 1383
1414 1413 1411 1410 1408 1407 1405 1404 1402 1401 1400 1398 1397 1396 1396 1395 1394 1394 1393 1392 1392 1391 1391 1390 1389 1388 1388 1387 1386 1386 1385 1385 1385 1384 1384 1383 1383 1382 1382 1381 1381 1381 1381 1381 1381 1381 1380 1380 1379 1379 1379 1379 1379 1379 1379 1380 1380 1379 1378 1378 1378 1379 1379 1380 1380 1380 1380 1380 1380
1412 1410 1409 1407 1406 1404 1403 1401 1400 1399 1397 1396 1395 1395 1394 1393 1392 1392 1391 1391 1390 1389 1389 1388 1387 1386 1386 1385 1385 1384 1384 1383 1383 1382 1381 1381 1381 1380 1379 1379 1379 1378 1378 1378 1378 1377 1377 1376 1376 1376 1375 1376 1376 1376 1376 1377 1377 1376 1376 1375 1375 1376 1376 1376 1377 1377 1378 1377 1377
1409 1408 1406 1405 1403 1402 1400 1399 1397 1396 1395 1394 1393 1393 1392 1392 1391 1391 1390 1389 1388 1387 1386 1386 1386 1386 1385 1384 1384 1383 1382 1381 1381 1380 1379 1378 1378 1377 1377 1376 1376 1376 1375 1375 1375 1375 1374 1373 1373 1372 1372 1372 1372 1372 1373 1373 1373 1373 1373 1372 1372 1372 1373 1373 1374 1374 1375 1375 1374
1407 1406 1404 1402 1401 1400 1398 1397 1396 1394 1394 1393 1392 1391 1391 1390 1390 1389 1388 1387 1386 1386 1385 1385 1384 1384 1383 1382 1381 1380 1379 1378 1378 1377 1376 1376 1375 1375 1374 1374 1373 1373 1372 1372 1372 1372 1371 1371 1370 1370 1370 1369 1370 1370 1369 1370 1370 1370 1369 1369 1370 1370 1370 1370 1371 1371 1371 1371 1371
1405 1403 1402 1400 1399 1397 1396 1395 1393 1393 1392 1391 1391 1390 1389 1388 1387 1387 1386 1386 1385 1384 1383 1382 1381 1381 1380 1379 1378 1377 1376 1376 1375 1375 1374 1373 1372 1372 1371 1371 1371 1370 1370 1370 1370 1369 1369 1368 1368 1367 1367 1367 1367 1366 1366 1367 1366 1366 1366 1366 1366 1366 1366 1366 1367 1368 1369 1369 1369
1402 1401 1399 1398 1396 1395 1394 1393 1392 1391 1390 1389 1389 1388 1387 1386 1386 1386 1386 1384 1382 1381 1380 1379 1379 1378 1377 1376 1376 1375 1374 1373 1373 1372 1371 1370 1370 1369 1369 1368 1368 1367 1367 1367 1367 1367 1366 1366 1365 1365 1365 1364 1364 1364 1364 1364 1364 1363 1363 1363 1363 1363 1363 1364 1364 1365 1366 1366 1366
1400 1398 1397 1396 1394 1393 1392 1391 1390 1389 1388 1387 1386 1386 1386 1385 1385 1384 1382 1381 1379 1378 1377 1377 1376 1375 1375 1374 1373 1372 1371 1371 1370 1369 1368 1367 1367 1366 1366 1366 1365 1365 1365 1365 1364 1364 1364 1363 1363 1363 1362 1362 1361 1361 1361 1361 1361 1361 1360 1360 1360 1360 1361 1361 1361 1362 1362 1362 1363
1397 1396 1395 1393 1392 1391 1390 1389 1388 1387 1386 1386 1386 1385 1384 1383 1381 1380 1379 1377 1376 1376 1375 1374 1373 1372 1371 1371 1370 1370 1369 1368 1367 1366 1366 1365 1364 1364 1363 1363 1363 1363 1362 1362 1362 1361 1361 1361 1361 1361 1360 1360 1359 1359 1359 1359 1358 1358 1358 1357 1357 1357 1357 1358 1359 1359 1359 1359 1360
1395 1394 1392 1391 1391 1390 1389 1388 1387 1386 1386 1385 1384 1382 1381 1380 1378 1377 1376 1376 1375 1374 1373 1371 1371 1370 1369 1368 1367 1367 1366 1365 1364 1364 1363 1362 1362 1361 1361 1361 1361 1360 1360 1360 1360 1359 1359 1359 1359 1358 1358 1357 1357 1357 1356 1356 1356 1356 1355 1355 1355 1355 1355 1355 1356 1356 1356 1356 1356
1393 1392 1391 1390 1389 1388 1387 1386 1385 1385 1384 1383 1381 1380 1378 1377 1376 1376 1374 1374 1372 1371 1370 1369 1368 1367 1366 1366 1365 1365 1364 1363 1362 1361 1361 1361 1360 1360 1359 1359 1359 1358 1358 1358 1357 1357 1357 1356 1356 1356 1356 1355 1355 1354 1354 1354 1353 1353 1353 1352 1352 1352 1352 1352 1352 1352 1353 1353 1353
1391 1390 1389 1388 1387 1386 1385 1384 1384 1383 1382 1380 1379 1377 1376 1375 1374 1373 1372 1371 1370 1369 1368 1366 1366 1365 1364 1364 1363 1362 1362 1361 1361 1360 1359 1359 1358 1358 1357 1357 1357 1356 1356 1356 1355 1355 1355 1354 1354 1354 1354 1353 1353 1352 1352 1351 1351 1350 1350 1350 1350 1349 1349 1349 1349 1349 1350 1350 1350
1390 1389 1388 1387 1386 1385 1384 1383 1382 1381 1379 1378 1376 1375 1374 1373 1372 1371 1370 1369 1368 1367 1366 1365 1364 1363 1362 1362 1361 1361 1360 1359 1359 1358 1357 1357 1357 1356 1356 1356 1355 1355 1354 1354 1353 1353 1353 1352 1352 1352 1351 1351 1350 1350 1349 1349 1348 1348 1347 1347 1347 1346 1346 1346 1346 1346 1346 1346 1347
1389 1387 1386 1385 1384 1383 1382 1381 1380 1378 1377 1376 1375 1373 1372 1371 1370 1369 1368 1367 1366 1365 1364 1363 1362 1361 1361 1360 1359 1359 1358 1358 1357 1356 1356 1356 1355 1355 1354 1354 1353 1353 1352 1352 1351 1351 1351 1350 1350 1349 1349 1349 1348 1347 1347 1346 1346 1346 1345 1345 1344 1344 1343 1343 1343 1344 1344 1344 1344
1387 1386 1385 1384 1382 1381 1380 1379 1378 1376 1375 1374 1373 1372 1371 1369 1368 1367 1366 1365 1364 1363 1362 1361 1361 1360 1359 1358 1358 1357 1356 1356 1356 1355 1354 1354 1353 1353 1352 1352 1351 1351 1350 1350 1349 1349 1348 1348 1348 1347 1346 1346 1345 1345 1344 1344 1343 1343 1342 1341 1341 1341 1341 1341 1341 1341 1341 1341 1341
1386 1385 1383 1382 1381 1380 1378 1377 1376 1375 1374 1372 1371 1370 1369 1368 1366 1366 1365 1363 1362 1361 1361 1360 1359 1358 1358 1357 1356 1356 1355 1354 1354 1353 1353 1352 1351 1351 1351 1350 1349 1349 1348 1348 1347 1347 1347 1346 1346 1345 1345 1345 1344 1344 1343 1342 1341 1340 1339 1339 1338 1338 1338 1338 1338 1338 1338 1338 1338
1385 1383 1382 1381 1379 1378 1377 1376 1375 1373 1372 1371 1370 1368 1367 1366 1365 1364 1363 1362 1361 1360 1359 1358 1358 1357 1356 1355 1355 1354 1353 1353 1352 1351 1351 1351 1350 1349 1349 1348 1347 1347 1346 1346 1346 1346 1345 1345 1345 1344 1343 1343 1342 1341 1340 1340 1340 1340 1339 1338 1337 1336 1336 1336 1335 1335 1335 1335 1335
1383 1382 1381 1379 1378 1377 1376 1375 1373 1372 1371 1369 1368 1367 1366 1365 1363 1362 1361 1361 1360 1359 1358 1357 1356 1355 1355 1354 1353 1352 1352 1351 1351 1350 1349 1348 1348 1348 1347 1346 1346 1345 1345 1344 1344 1344 1344 1343 1343 1341 1340 1339 1338 1337 1337 1336 1336 1335 1334 1333 1333 1333 1333 1333 1333 1333 1333 1332 1333
1381 1380 1379 1378 1377 1376 1375 1373 1372 1371 1369 1368 1367 1366 1364 1363 1362 1361 1360 1359 1358 1357 1356 1356 1355 1354 1353 1352 1351 1351 1351 1350 1349 1348 1348 1347 1346 1346 1345 1344 1344 1343 1343 1342 1342 1341 1340 1340 1339 1338 1337 1336 1335 1334 1334 1333 1332 1332 1331 1330 1330 1329 1329 1330 1330 1330 1331 1331 1330
1380 1379 1378 1377 1376 1375 1373 1372 1371 1369 1368 1367 1366 1364 1363 1362 1361 1360 1359 1358 1357 1356 1355 1354 1353 1352 1351 1351 1350 1350 1349 1348 1347 1347 1346 1345 1344 1343 1342 1342 1342 1341 1341 1340 1339 1338 1337 1337 1336 1336 1335 1334 1333 1331 1331 1329 1329 1328 1328 1327 1326 1326 1326 1326 1326 1326 1327 1328 1328
1379 1378 1377 1376 1375 1374 1372 1371 1370 1368 1367 1366 1365 1363 1362 1361 1360 1359 1358 1357 1356 1355 1354 1353 1352 1351 1350 1349 1349 1348 1347 1347 1346 1345 1344 1343 1342 1341 1341 1340 1339 1338 1337 1337 1336 1336 1335 1334 1333 1333 1332 1331 1330 1329 1327 1326 1325 1325 1324 1323 1323 1322 1322 1322 1322 1323 1324 1324 1325
1378 1377 1376 1375 1374 1372 1371 1370 1369 1367 1366 1365 1363 1362 1361 1360 1359 1358 1357 1356 1355 1353 1352 1351 1351 1350 1349 1348 1347 1347 1346 1345 1344 1343 1342 1341 1341 1340 1339 1338 1337 1336 1335 1335 1334 1333 1332 1331 1331 1330 1329 1328 1327 1326 1324 1323 1322 1321 1320 1320 1319 1319 1318 1318 1319 1319 1320 1321 1322
1377 1376 1375 1374 1373 1371 1370 1369 1368 1366 1365 1364 1362 1361 1360 1359 1358 1356 1356 1354 1353 1352 1351 1350 1349 1349 1348 1347 1346 1345 1344 1343 1342 1341 1341 1340 1339 1338 1336 1336 1335 1334 1333 1332 1331 1331 1330 1329 1328 1327 1326 1326 1324 1323 1321 1320 1319 1318 1317 1316 1315 1315 1315 1315 1315 1316 1316 1317 1319
1376 1375 1374 1373 1372 1371 1369 1368 1367 1366 1364 1363 1362 1361 1359 1358 1357 1356 1354 1353 1352 1351 1350 1349 1348 1347 1346 1346 1345 1344 1343 1341 1341 1340 1339 1338 1336 1335 1334 1333 1333 1332 1331 1330 1329 1329 1328 1327 1326 1325 1324 1322 1321 1320 1318 1317 1316 1314 1313 1312 1311 1311 1311 1311 1311 1312 1312 1314 1315
1376 1375 1373 1372 1371 1370 1369 1367 1366 1365 1363 1362 1361 1360 1358 1357 1356 1354 1353 1352 1351 1350 1349 1348 1347 1346 1345 1344 1343 1342 1341 1340 1339 1338 1337 1336 1335 1333 1332 1331 1331 1330 1329 1328 1327 1326 1326 1324 1323 1322 1321 1320 1318 1317 1315 1314 1312 1311 1309 1308 1308 1307 1307 1308 1308 1308 1309 1310 1311
1375 1374 1373 1371 1370 1369 1368 1366 1365 1364 1363 1361 1360 1359 1357 1356 1354 1353 1352 1351 1350 1349 1348 1347 1346 1345 1344 1342 1341 1340 1339 1338 1337 1336 1335 1334 1333 1332 1331 1330 1329 1328 1327 1326 1326 1324 1323 1322 1321 1320 1318 1317 1316 1314 1312 1311 1309 1307 1306 1304 1304 1303 1304 1304 1304 1305 1306 1307 1308
1374 1373 1372 1371 1370 1368 1367 1366 1365 1363 1362 1361 1359 1358 1356 1355 1353 1352 1351 1350 1349 1348 1347 1346 1345 1344 1342 1341 1340 1339 1338 1336 1336 1335 1333 1332 1331 1330 1329 1328 1327 1326 1325 1325 1323 1322 1321 1320 1319 1317 1316 1314 1313 1311 1309 1307 1305 1303 1302 1301 1300 1299 1300 1300 1301 1301 1302 1304 1305
1374 1373 1371 1370 1369 1368 1366 1365 1364 1362 1361 1360 1358 1357 1355 1354 1352 1351 1350 1348 1347 1346 1346 1345 1344 1342 1341 1340 1339 1338 1336 1335 1334 1333 1332 1331 1330 1328 1327 1326 1325 1325 1324 1323 1322 1321 1319 1318 1316 1315 1313 1312 1310 1307 1306 1304 1302 1300 1298 1297 1296 1296 1296 1296 1297 1298 1299 1301 1302
1373 1372 1371 1370 1368 1367 1366 1365 1363 1362 1361 1359 1357 1356 1354 1353 1351 1350 1349 1348 1346 1346 1344 1343 1342 1341 1340 1339 1337 1336 1336 1334 1333 1332 1331 1330 1328 1327 1326 1325 1324 1323 1322 1321 1320 1319 1317 1316 1315 1313 1311 1309 1307 1305 1303 1301 1298 1296 1295 1293 1292 1292 1292 1293 1293 1294 1296 1297 1299
1373 1372 1371 1369 1368 1367 1366 1364 1363 1361 1360 1358 1357 1355 1354 1352 1351 1350 1348 1347 1346 1344 1343 1342 1341 1340 1339 1337 1336 1335 1334 1333 1332 1331 1329 1328 1327 1326 1324 1323 1322 1321 1321 1320 1318 1317 1316 1315 1313 1311 1309 1306 1304 1302 1300 1298 1296 1294 1292 1291 1289 1289 1289 1290 1291 1292 1293 1294 1296
1373 1371 1370 1369 1368 1366 1365 1364 1362 1361 1359 1358 1356 1355 1353 1352 1350 1349 1347 1346 1345 1344 1342 1341 1340 1339 1338 1336 1335 1334 1333 1332 1331 1330 1328 1327 1326 1324 1323 1322 1321 1320 1319 1318 1317 1316 1314 1313 1311 1309 1307 1305 1302 1300 1298 1296 1294 1292 1291 1289 1288 1287 1287 1288 1289 1290 1291 1292 1294
1372 1371 1370 1369 1367 1366 1365 1363 1362 1361 1359 1357 1356 1354 1353 1351 1350 1348 1347 1346 1345 1343 1342 1341 1339 1338 1337 1336 1334 1333 1332 1331 1330 1329 1327 1326 1325 1323 1322 1321 1320 1319 1318 1317 1316 1314 1313 1311 1310 1307 1305 1303 1301 1298 1296 1295 1293 1291 1290 1288 1287 1286 1286 1286 1287 1288 1289 1291 1292
1372 1371 1370 1369 1367 1366 1365 1363 1362 1360 1359 1357 1355 1354 1352 1351 1350 1348 1347 1346 1344 1343 1341 1340 1339 1338 1336 1335 1334 1332 1331 1330 1329 1328 1326 1325 1324 1323 1321 1320 1319 1318 1317 1316 1315 1313 1312 1310 1308 1306 1304 1301 1299 1297 1295 1294 1292 1291 1289 1288 1287 1286 1286 1286 1286 1287 1288 1289 1291
1372 1371 1370 1369 1367 1366 1364 1363 1361 1360 1358 1357 1355 1354 1352 1351 1350 1348 1346 1345 1344 1342 1341 1340 1338 1337 1336 1334 1333 1332 1330 1329 1328 1327 1326 1325 1323 1322 1321 1319 1318 1317 1316 1315 1313 1312 1311 1309 1307 1305 1303 1301 1298 1296 1295 1293 1291 1290 1289 1288 1287 1286 1286 1286 1286 1286 1287 1289 1290